Showing default

CYGFM08, 41888

Orbit data source: Space-Track

CYGFM08, 41888 is an American payload satellite in LEO that was launched on Thu, 15 Dec 2016 UTC via a PEGASUS XL launch vehicle from the Pegasus Launch, Eastern Range Air Space (ERAS). Payload-class satellites include a variety of spacecraft equipped with specific instruments for various scientific and technological missions. These include communications satellites like Starlink; space stations such as the ISS; scientific satellites like the Hubble; Earth observation satellites from companies like Planet Labs, Umbra, and HawkEye 360; GPS; miniature CubeSats for education and research; and military/defense satellites.

Loading next visibility...
Identifier
41888, 2016-078E
Orbit
LEO
Country
Flag of USUS
Related business
Manufacturer
SST-US
Mission
Extended mission Civil Earth Obs Sci
Bus & Motor
CYGNSS, Unknown motor
Mass
29 kg wet, 29 kg dry
Launch date (UTC)
2016-12-15 (9 years ago)
Launch vehicle
PEGASUS XL
Launch site
Pegasus Launch, Eastern Range Air Space (ERAS)
Object type
Payload
Rocket body
Debris
Shape & HBR
Half Hex Cyl + 2 Pan, 2.5 m
Radar Cross Section
0.450 m², Medium (>0.1 m² and < 1m²)

Expand to show TLE details & history
Last TLE update: 22 hours ago

TLE from 22 hours ago
0 CYGFM08
1 41888U 16078E   25349.75088934  .00016319  00000-0  28629-3 0  9998
2 41888  34.9467  12.7455 0011808 225.6417 134.3338 15.49547701500400
Epoch: 2025-12-15T18:01Z
TLE epoch observation values (Epoch: 2025-12-15T18:01:16.838Z)
Latitude
-0.00003°
Longitude
17.78033°
Altitude
422.549 km
Speed
7.657 km/s
True Right ascension
00h 50m 58s
True Declination
0° 00' 00"
Sunlit
Object was in daylight at epoch
Visualization orbit readout
Latitude
Unknown
Longitude
Unknown
Altitude
Unknown
Speed
Unknown
Apparent Right ascension
Unknown
Apparent Declination
Unknown
Sunlit
N/A
Visualization observer readout
Local Sidereal Time
14:52:27
Azimuth
Unknown
Elevation
Unknown
Doppler factor
Unknown
Orbital elements
Apogee altitude
429.373 km
Perigee altitude
413.316 km
Semi-major axis
6,799.481 km
Eccentricity
0.00118
Inclination
34.9467°
RAAN
12.7455°
Arg. of periapsis
225.6417°
True anomaly
134.43048°
Mean anomaly
134.3338°
Eccentric anomaly
134.38215°
Mean motion
3.87106 °/min
Orbital period
93 mins
BSTAR
0.00028629
Loading maneuver chart data...
Computing Atmospheric mass density...
Loading historical data...
Loading historical data...
Loading historical data...
Loading historical data...
Loading historical data...
Loading historical data...
Loading historical data...

Documentation

Showing up to 5 results
|